Saint Bonnet de Bellac- Haute Vienne - France
Donnes mto: samedi, 21/04/2012
Date Horaire Temp. E. Hum. E. P.atmo. Pluie Vent Direction Direction Ensoleilleme Solaire P. de rose Temp au vent Rafales
21/04/2012 00:00 7,8 C 88 % 1004,4 hPa 0,0 mm 6,5 km/h (2 Bft) S-SO 202 0 min 0 W/m 5,9 C 6,8 C 10,4 km/h (2 Bft)
21/04/2012 00:10 7,7 C 88 % 1004,4 hPa 0,0 mm 6,8 km/h (2 Bft) O-SO 247 0 min 0 W/m 5,8 C 6,6 C 15,1 km/h (3 Bft)
21/04/2012 00:20 7,6 C 89 % 1004,5 hPa 0,0 mm 3,6 km/h (1 Bft) O-SO 247 0 min 0 W/m 5,9 C 7,6 C 3,6 km/h (1 Bft)
21/04/2012 00:30 7,6 C 89 % 1004,5 hPa 0,0 mm 6,5 km/h (2 Bft) SO 225 0 min 0 W/m 5,9 C 6,6 C 6,5 km/h (2 Bft)
21/04/2012 00:40 7,6 C 89 % 1004,5 hPa 0,0 mm 6,1 km/h (2 Bft) S-SO 202 0 min 0 W/m 5,9 C 6,7 C 7,6 km/h (2 Bft)
21/04/2012 00:50 7,6 C 89 % 1004,5 hPa 0,0 mm 9,0 km/h (2 Bft) SO 225 0 min 0 W/m 5,9 C 6,0 C 12,6 km/h (3 Bft)
21/04/2012 01:00 7,6 C 89 % 1004,5 hPa 0,0 mm 7,9 km/h (2 Bft) SO 225 0 min 0 W/m 5,9 C 6,2 C 12,2 km/h (2 Bft)
21/04/2012 01:10 7,7 C 90 % 1004,5 hPa 0,0 mm 6,8 km/h (2 Bft) SO 225 0 min 0 W/m 6,2 C 6,6 C 8,6 km/h (2 Bft)
21/04/2012 01:20 7,7 C 90 % 1004,4 hPa 0,0 mm 3,6 km/h (1 Bft) S-SO 202 0 min 0 W/m 6,2 C 7,7 C 9,0 km/h (2 Bft)
21/04/2012 01:30 7,8 C 91 % 1004,3 hPa 0,0 mm 4,7 km/h (1 Bft) SO 225 0 min 0 W/m 6,4 C 7,4 C 4,7 km/h (1 Bft)
21/04/2012 01:40 7,8 C 91 % 1004,3 hPa 0,0 mm 5,0 km/h (1 Bft) SO 225 0 min 0 W/m 6,4 C 7,3 C 7,6 km/h (2 Bft)
21/04/2012 01:50 7,9 C 91 % 1004,1 hPa 0,0 mm 11,2 km/h (2 Bft) O-SO 247 0 min 0 W/m 6,5 C 5,9 C 15,5 km/h (3 Bft)
21/04/2012 02:00 7,9 C 91 % 1004,1 hPa 0,0 mm 6,5 km/h (2 Bft) O-SO 247 0 min 0 W/m 6,5 C 6,9 C 7,2 km/h (2 Bft)
21/04/2012 02:10 8,0 C 90 % 1004,1 hPa 0,0 mm 7,2 km/h (2 Bft) S-SO 202 0 min 0 W/m 6,5 C 6,8 C 10,8 km/h (2 Bft)
21/04/2012 02:20 8,0 C 90 % 1004,0 hPa 0,0 mm 8,3 km/h (2 Bft) O-SO 247 0 min 0 W/m 6,5 C 6,6 C 10,4 km/h (2 Bft)
21/04/2012 02:30 8,0 C 89 % 1004,0 hPa 0,0 mm 10,8 km/h (2 Bft) SO 225 0 min 0 W/m 6,3 C 6,1 C 14,4 km/h (3 Bft)
21/04/2012 02:40 7,9 C 89 % 1003,9 hPa 0,0 mm 8,3 km/h (2 Bft) O-SO 247 0 min 0 W/m 6,2 C 6,5 C 8,3 km/h (2 Bft)
21/04/2012 02:50 7,8 C 89 % 1003,8 hPa 0,0 mm 10,4 km/h (2 Bft) S-SO 202 0 min 0 W/m 6,1 C 5,9 C 10,4 km/h (2 Bft)
21/04/2012 03:02 7,8 C 90 % 1003,7 hPa 0,0 mm 5,8 km/h (2 Bft) O-SO 247 0 min 0 W/m 6,3 C 7,0 C 7,6 km/h (2 Bft)
21/04/2012 03:10 7,8 C 90 % 1003,6 hPa 0,0 mm 6,1 km/h (2 Bft) SO 225 0 min 0 W/m 6,3 C 6,9 C 12,6 km/h (3 Bft)
21/04/2012 03:20 7,8 C 91 % 1003,6 hPa 0,0 mm 10,8 km/h (2 Bft) S-SO 202 0 min 0 W/m 6,4 C 5,9 C 15,1 km/h (3 Bft)
21/04/2012 03:30 7,8 C 91 % 1003,6 hPa 0,0 mm 9,0 km/h (2 Bft) SO 225 0 min 0 W/m 6,4 C 6,2 C 9,7 km/h (2 Bft)
21/04/2012 03:40 7,8 C 91 % 1003,6 hPa 0,0 mm 10,1 km/h (2 Bft) S-SO 202 0 min 0 W/m 6,4 C 6,0 C 13,3 km/h (3 Bft)
21/04/2012 03:50 7,8 C 91 % 1003,6 hPa 0,0 mm 9,0 km/h (2 Bft) S-SO 202 0 min 0 W/m 6,4 C 6,2 C 12,2 km/h (2 Bft)
21/04/2012 04:00 7,8 C 91 % 1003,6 hPa 0,0 mm 11,5 km/h (2 Bft) O 270 0 min 0 W/m 6,4 C 5,7 C 14,0 km/h (3 Bft)
21/04/2012 04:10 7,8 C 91 % 1003,5 hPa 0,0 mm 8,6 km/h (2 Bft) O-SO 247 0 min 0 W/m 6,4 C 6,3 C 12,2 km/h (2 Bft)
21/04/2012 04:20 7,8 C 91 % 1003,4 hPa 0,0 mm 11,9 km/h (2 Bft) S-SO 202 0 min 0 W/m 6,4 C 5,7 C 15,1 km/h (3 Bft)
21/04/2012 04:30 7,7 C 91 % 1003,4 hPa 0,0 mm 9,0 km/h (2 Bft) SO 225 0 min 0 W/m 6,3 C 6,1 C 15,1 km/h (3 Bft)
21/04/2012 04:40 7,6 C 90 % 1003,3 hPa 0,0 mm 5,8 km/h (2 Bft) S-SO 202 0 min 0 W/m 6,1 C 6,8 C 11,5 km/h (2 Bft)
21/04/2012 04:50 7,6 C 90 % 1003,2 hPa 0,0 mm 11,9 km/h (2 Bft) S-SO 202 0 min 0 W/m 6,1 C 5,4 C 14,8 km/h (3 Bft)
21/04/2012 05:00 7,6 C 91 % 1003,3 hPa 0,0 mm 6,5 km/h (2 Bft) SO 225 0 min 0 W/m 6,2 C 6,6 C 11,2 km/h (2 Bft)
21/04/2012 05:10 7,6 C 91 % 1003,2 hPa 0,0 mm 6,8 km/h (2 Bft) SO 225 0 min 0 W/m 6,2 C 6,5 C 6,8 km/h (2 Bft)
21/04/2012 05:20 7,5 C 91 % 1003,2 hPa 0,0 mm 7,9 km/h (2 Bft) SO 225 0 min 0 W/m 6,1 C 6,1 C 11,5 km/h (2 Bft)
21/04/2012 05:30 7,5 C 91 % 1003,0 hPa 0,0 mm 10,4 km/h (2 Bft) O 270 0 min 0 W/m 6,1 C 5,6 C 14,4 km/h (3 Bft)
21/04/2012 05:40 7,5 C 91 % 1003,0 hPa 0,0 mm 6,8 km/h (2 Bft) SO 225 0 min 0 W/m 6,1 C 6,4 C 10,4 km/h (2 Bft)
21/04/2012 05:50 7,5 C 91 % 1003,0 hPa 0,0 mm 6,1 km/h (2 Bft) O 270 0 min 0 W/m 6,1 C 6,6 C 9,7 km/h (2 Bft)
21/04/2012 06:00 7,5 C 91 % 1002,9 hPa 0,0 mm 10,8 km/h (2 Bft) SO 225 0 min 0 W/m 6,1 C 5,5 C 15,8 km/h (3 Bft)
21/04/2012 06:10 7,6 C 91 % 1002,9 hPa 0,0 mm 6,8 km/h (2 Bft) S-SO 202 0 min 0 W/m 6,2 C 6,5 C 10,8 km/h (2 Bft)
21/04/2012 06:20 7,6 C 91 % 1002,9 hPa 0,0 mm 9,4 km/h (2 Bft) S-SO 202 0 min 0 W/m 6,2 C 5,9 C 9,7 km/h (2 Bft)
21/04/2012 06:30 7,6 C 91 % 1002,9 hPa 0,0 mm 8,3 km/h (2 Bft) SO 225 0 min 0 W/m 6,2 C 6,1 C 13,0 km/h (3 Bft)
21/04/2012 06:40 7,5 C 91 % 1003,0 hPa 0,0 mm 7,2 km/h (2 Bft) S-SO 202 0 min 0 W/m 6,1 C 6,3 C 8,6 km/h (2 Bft)
21/04/2012 06:50 7,5 C 91 % 1003,0 hPa 0,0 mm 6,5 km/h (2 Bft) S-SO 202 0 min 0 W/m 6,1 C 6,5 C 11,2 km/h (2 Bft)
21/04/2012 07:00 7,5 C 91 % 1003,0 hPa 0,0 mm 5,8 km/h (2 Bft) S-SO 202 0 min 0 W/m 6,1 C 6,7 C 6,8 km/h (2 Bft)
21/04/2012 07:10 7,6 C 91 % 1003,0 hPa 0,0 mm 8,6 km/h (2 Bft) SO 225 2 min 0 W/m 6,2 C 6,1 C 10,4 km/h (2 Bft)
21/04/2012 07:20 7,5 C 90 % 1003,0 hPa 0,0 mm 6,1 km/h (2 Bft) SO 225 2 min 0 W/m 6,0 C 6,6 C 11,2 km/h (2 Bft)
21/04/2012 07:30 7,4 C 90 % 1003,1 hPa 0,0 mm 4,7 km/h (1 Bft) S-SO 202 2 min 0 W/m 5,9 C 6,9 C 4,7 km/h (1 Bft)
21/04/2012 07:40 7,4 C 89 % 1003,2 hPa 0,0 mm 4,7 km/h (1 Bft) S-SO 202 2 min 0 W/m 5,7 C 6,9 C 7,2 km/h (2 Bft)
21/04/2012 07:50 7,4 C 89 % 1003,1 hPa 0,0 mm 7,2 km/h (2 Bft) S-SO 202 2 min 0 W/m 5,7 C 6,1 C 8,3 km/h (2 Bft)
21/04/2012 08:00 7,4 C 89 % 1003,3 hPa 0,0 mm 6,5 km/h (2 Bft) S-SE 157 2 min 0 W/m 5,7 C 6,3 C 9,4 km/h (2 Bft)
21/04/2012 08:10 7,6 C 90 % 1003,2 hPa 0,0 mm 6,8 km/h (2 Bft) SO 225 2 min 0 W/m 6,1 C 6,5 C 8,3 km/h (2 Bft)
21/04/2012 08:20 7,8 C 90 % 1003,3 hPa 0,0 mm 10,4 km/h (2 Bft) SO 225 2 min 0 W/m 6,3 C 5,9 C 14,8 km/h (3 Bft)
21/04/2012 08:30 7,9 C 90 % 1003,3 hPa 0,0 mm 7,2 km/h (2 Bft) S-SO 202 2 min 0 W/m 6,4 C 6,7 C 10,8 km/h (2 Bft)
21/04/2012 08:40 8,0 C 90 % 1003,3 hPa 0,0 mm 9,4 km/h (2 Bft) SO 225 2 min 0 W/m 6,5 C 6,4 C 10,4 km/h (2 Bft)
21/04/2012 08:50 8,2 C 90 % 1003,4 hPa 0,0 mm 8,3 km/h (2 Bft) S-SO 202 2 min 0 W/m 6,7 C 6,8 C 13,0 km/h (3 Bft)
21/04/2012 09:00 8,3 C 89 % 1003,4 hPa 0,0 mm 6,5 km/h (2 Bft) S 180 2 min 0 W/m 6,6 C 7,4 C 10,1 km/h (2 Bft)
21/04/2012 09:10 8,4 C 89 % 1003,5 hPa 0,0 mm 6,8 km/h (2 Bft) SO 225 2 min 0 W/m 6,7 C 7,4 C 9,4 km/h (2 Bft)
21/04/2012 09:20 8,5 C 88 % 1003,5 hPa 0,0 mm 8,3 km/h (2 Bft) S-SO 202 2 min 0 W/m 6,6 C 7,2 C 9,4 km/h (2 Bft)
21/04/2012 09:30 8,8 C 88 % 1003,3 hPa 0,0 mm 10,8 km/h (2 Bft) S-SO 202 2 min 0 W/m 6,9 C 7,1 C 16,2 km/h (3 Bft)
21/04/2012 09:40 8,8 C 87 % 1003,4 hPa 0,0 mm 9,7 km/h (2 Bft) SO 225 2 min 0 W/m 6,8 C 7,3 C 14,8 km/h (3 Bft)
21/04/2012 09:50 8,9 C 86 % 1003,6 hPa 0,0 mm 5,4 km/h (2 Bft) SO 225 2 min 0 W/m 6,7 C 8,4 C 9,7 km/h (2 Bft)
21/04/2012 10:00 8,9 C 86 % 1003,5 hPa 0,0 mm 12,2 km/h (2 Bft) SO 225 2 min 0 W/m 6,7 C 7,0 C 16,2 km/h (3 Bft)
21/04/2012 10:10 9,0 C 86 % 1003,5 hPa 0,0 mm 9,4 km/h (2 Bft) S-SO 202 2 min 0 W/m 6,8 C 7,5 C 14,4 km/h (3 Bft)
21/04/2012 10:20 9,1 C 86 % 1003,5 hPa 0,1 mm 9,4 km/h (2 Bft) S-SO 202 2 min 0 W/m 6,9 C 7,7 C 15,1 km/h (3 Bft)
21/04/2012 10:30 9,1 C 86 % 1003,4 hPa 0,0 mm 6,1 km/h (2 Bft) S-SO 202 2 min 0 W/m 6,9 C 8,4 C 13,7 km/h (3 Bft)
21/04/2012 10:40 9,2 C 85 % 1003,4 hPa 0,0 mm 10,4 km/h (2 Bft) S 180 2 min 0 W/m 6,8 C 7,6 C 11,9 km/h (2 Bft)
21/04/2012 10:50 9,5 C 84 % 1003,3 hPa 0,0 mm 10,4 km/h (2 Bft) N 360 2 min 0 W/m 6,9 C 8,0 C 10,4 km/h (2 Bft)
21/04/2012 11:00 9,8 C 83 % 1003,3 hPa 0,0 mm 11,5 km/h (2 Bft) S-SO 202 2 min 0 W/m 7,1 C 8,1 C 16,6 km/h (3 Bft)
21/04/2012 11:10 10,1 C 83 % 1003,1 hPa 0,0 mm 5,0 km/h (1 Bft) S-SO 202 2 min 0 W/m 7,3 C 10,1 C 6,5 km/h (2 Bft)
21/04/2012 11:20 10,3 C 83 % 1003,2 hPa 0,0 mm 8,3 km/h (2 Bft) SO 225 2 min 0 W/m 7,5 C 10,3 C 13,7 km/h (3 Bft)
21/04/2012 11:30 10,3 C 82 % 1003,1 hPa 0,0 mm 9,4 km/h (2 Bft) S-SO 202 2 min 0 W/m 7,4 C 10,3 C 14,0 km/h (3 Bft)
21/04/2012 11:40 10,4 C 82 % 1003,0 hPa 0,0 mm 10,4 km/h (2 Bft) SO 225 2 min 0 W/m 7,5 C 10,4 C 14,8 km/h (3 Bft)
21/04/2012 11:50 11,2 C 80 % 1002,9 hPa 0,0 mm 15,8 km/h (3 Bft) O-SO 247 2 min 0 W/m 7,9 C 11,2 C 15,8 km/h (3 Bft)
21/04/2012 12:00 11,4 C 79 % 1002,9 hPa 0,0 mm 18,7 km/h (3 Bft) S-SO 202 2 min 0 W/m 7,9 C 11,4 C 27,7 km/h (5 Bft)
21/04/2012 12:10 10,8 C 83 % 1003,1 hPa 0,0 mm 10,1 km/h (2 Bft) SO 225 2 min 0 W/m 8,0 C 10,8 C 10,1 km/h (2 Bft)
21/04/2012 12:20 10,8 C 84 % 1003,4 hPa 0,0 mm 2,2 km/h (1 Bft) O-SO 247 2 min 0 W/m 8,2 C 10,8 C 2,9 km/h (1 Bft)
21/04/2012 12:30 10,9 C 81 % 1003,4 hPa 0,0 mm 9,7 km/h (2 Bft) SO 225 2 min 0 W/m 7,8 C 10,9 C 11,5 km/h (2 Bft)
21/04/2012 12:40 10,8 C 80 % 1003,5 hPa 0,0 mm 14,0 km/h (3 Bft) S 180 2 min 0 W/m 7,5 C 10,8 C 15,1 km/h (3 Bft)
21/04/2012 12:50 10,4 C 85 % 1003,6 hPa 0,1 mm 9,7 km/h (2 Bft) SO 225 2 min 0 W/m 8,0 C 10,4 C 14,0 km/h (3 Bft)
21/04/2012 13:00 10,3 C 87 % 1003,8 hPa 0,0 mm 7,9 km/h (2 Bft) SO 225 2 min 0 W/m 8,2 C 10,3 C 12,2 km/h (2 Bft)
21/04/2012 13:10 10,2 C 85 % 1003,5 hPa 0,0 mm 6,8 km/h (2 Bft) SO 225 2 min 0 W/m 7,8 C 10,2 C 12,6 km/h (3 Bft)
21/04/2012 13:20 10,9 C 86 % 1003,6 hPa 0,1 mm 7,6 km/h (2 Bft) SO 225 2 min 0 W/m 8,7 C 10,9 C 11,9 km/h (2 Bft)
21/04/2012 13:30 11,4 C 83 % 1003,6 hPa 0,0 mm 7,6 km/h (2 Bft) O 270 2 min 0 W/m 8,6 C 11,4 C 7,6 km/h (2 Bft)
21/04/2012 13:40 11,3 C 83 % 1003,7 hPa 0,0 mm 1,8 km/h (1 Bft) O 270 2 min 0 W/m 8,5 C 11,3 C 1,8 km/h (1 Bft)
21/04/2012 13:50 10,6 C 82 % 1003,8 hPa 1,3 mm 4,3 km/h (1 Bft) O-SO 247 2 min 0 W/m 7,7 C 10,6 C 4,3 km/h (1 Bft)
21/04/2012 14:00 10,2 C 86 % 1003,8 hPa 0,0 mm 5,4 km/h (2 Bft) SO 225 2 min 0 W/m 8,0 C 10,2 C 7,9 km/h (2 Bft)
21/04/2012 14:10 10,5 C 87 % 1003,9 hPa 0,0 mm 6,5 km/h (2 Bft) O-SO 247 2 min 0 W/m 8,4 C 10,5 C 10,8 km/h (2 Bft)
21/04/2012 14:20 11,1 C 86 % 1004,0 hPa 0,0 mm 6,5 km/h (2 Bft) O 270 2 min 0 W/m 8,8 C 11,1 C 16,9 km/h (3 Bft)
21/04/2012 14:30 11,8 C 85 % 1003,9 hPa 0,0 mm 10,1 km/h (2 Bft) S-SO 202 2 min 0 W/m 9,4 C 11,8 C 16,2 km/h (3 Bft)
21/04/2012 14:40 12,4 C 80 % 1003,7 hPa 0,0 mm 20,9 km/h (4 Bft) S-SO 202 2 min 0 W/m 9,0 C 12,4 C 32,8 km/h (5 Bft)
21/04/2012 14:50 12,4 C 73 % 1003,8 hPa 0,1 mm 15,1 km/h (3 Bft) S-SO 202 2 min 0 W/m 7,7 C 12,4 C 25,9 km/h (4 Bft)
21/04/2012 15:00 12,3 C 73 % 1003,8 hPa 0,0 mm 4,0 km/h (1 Bft) O-SO 247 2 min 0 W/m 7,6 C 12,3 C 4,3 km/h (1 Bft)
21/04/2012 15:10 12,6 C 69 % 1004,0 hPa 0,0 mm 8,3 km/h (2 Bft) SO 225 2 min 0 W/m 7,1 C 12,6 C 13,7 km/h (3 Bft)
21/04/2012 15:20 12,8 C 66 % 1004,0 hPa 0,0 mm 17,3 km/h (3 Bft) O-SO 247 2 min 0 W/m 6,6 C 12,8 C 22,0 km/h (4 Bft)
21/04/2012 15:30 12,1 C 73 % 1004,4 hPa 0,0 mm 10,8 km/h (2 Bft) SO 225 2 min 0 W/m 7,4 C 12,1 C 21,2 km/h (4 Bft)
21/04/2012 15:40 12,1 C 74 % 1004,3 hPa 0,0 mm 8,6 km/h (2 Bft) O-NO 292 2 min 0 W/m 7,6 C 12,1 C 16,6 km/h (3 Bft)
21/04/2012 15:50 12,8 C 69 % 1004,5 hPa 0,0 mm 18,7 km/h (3 Bft) O-SO 247 2 min 0 W/m 7,3 C 12,8 C 27,7 km/h (5 Bft)
21/04/2012 16:00 12,8 C 68 % 1004,7 hPa 0,0 mm 4,3 km/h (1 Bft) O-SO 247 2 min 0 W/m 7,0 C 12,8 C 4,3 km/h (1 Bft)
21/04/2012 16:10 12,1 C 72 % 1004,8 hPa 0,2 mm 13,7 km/h (3 Bft) O-NO 292 2 min 0 W/m 7,2 C 12,1 C 23,8 km/h (4 Bft)
21/04/2012 16:20 12,1 C 76 % 1004,9 hPa 0,0 mm 4,7 km/h (1 Bft) SE 135 2 min 0 W/m 8,0 C 12,1 C 11,9 km/h (2 Bft)
21/04/2012 16:30 12,6 C 71 % 1004,9 hPa 0,0 mm 18,0 km/h (3 Bft) S-SO 202 2 min 0 W/m 7,5 C 12,6 C 23,8 km/h (4 Bft)
21/04/2012 16:40 12,4 C 68 % 1005,1 hPa 0,0 mm 5,0 km/h (1 Bft) SO 225 2 min 0 W/m 6,7 C 12,4 C 9,7 km/h (2 Bft)
21/04/2012 16:50 12,8 C 66 % 1005,0 hPa 0,0 mm 7,9 km/h (2 Bft) O-SO 247 2 min 0 W/m 6,6 C 12,8 C 10,4 km/h (2 Bft)
21/04/2012 17:00 13,1 C 63 % 1005,1 hPa 0,0 mm 8,3 km/h (2 Bft) SO 225 2 min 0 W/m 6,2 C 13,1 C 11,2 km/h (2 Bft)
21/04/2012 17:10 13,4 C 58 % 1005,1 hPa 0,0 mm 10,1 km/h (2 Bft) O-SO 247 2 min 0 W/m 5,3 C 13,4 C 10,1 km/h (2 Bft)
21/04/2012 17:20 13,3 C 58 % 1005,2 hPa 0,1 mm 7,9 km/h (2 Bft) SO 225 2 min 0 W/m 5,2 C 13,3 C 15,8 km/h (3 Bft)
21/04/2012 17:30 13,0 C 61 % 1005,3 hPa 0,0 mm 8,6 km/h (2 Bft) S-SO 202 2 min 0 W/m 5,7 C 13,0 C 10,1 km/h (2 Bft)
21/04/2012 17:40 13,2 C 58 % 1005,3 hPa 0,0 mm 13,7 km/h (3 Bft) SO 225 2 min 0 W/m 5,1 C 13,2 C 18,7 km/h (3 Bft)
21/04/2012 17:50 12,9 C 59 % 1005,5 hPa 0,0 mm 9,7 km/h (2 Bft) O-SO 247 2 min 0 W/m 5,1 C 12,9 C 19,1 km/h (3 Bft)
21/04/2012 18:00 12,9 C 54 % 1005,5 hPa 0,0 mm 8,3 km/h (2 Bft) SO 225 2 min 0 W/m 3,8 C 12,9 C 11,9 km/h (2 Bft)
21/04/2012 18:10 13,2 C 57 % 1005,6 hPa 0,0 mm 5,8 km/h (2 Bft) SO 225 2 min 0 W/m 4,9 C 13,2 C 13,7 km/h (3 Bft)
21/04/2012 18:20 13,2 C 61 % 1005,7 hPa 0,0 mm 7,2 km/h (2 Bft) O-SO 247 2 min 0 W/m 5,8 C 13,2 C 13,0 km/h (3 Bft)
21/04/2012 18:30 12,9 C 60 % 1005,9 hPa 0,0 mm 7,9 km/h (2 Bft) SO 225 2 min 0 W/m 5,3 C 12,9 C 11,9 km/h (2 Bft)
21/04/2012 18:40 12,9 C 59 % 1006,2 hPa 0,0 mm 11,2 km/h (2 Bft) S-SO 202 2 min 0 W/m 5,1 C 12,9 C 11,2 km/h (2 Bft)
21/04/2012 18:50 12,8 C 59 % 1006,4 hPa 0,0 mm 8,3 km/h (2 Bft) O-SO 247 2 min 0 W/m 5,0 C 12,8 C 21,6 km/h (4 Bft)
21/04/2012 19:00 12,6 C 56 % 1006,5 hPa 0,0 mm 10,4 km/h (2 Bft) SO 225 2 min 0 W/m 4,1 C 12,6 C 20,5 km/h (4 Bft)
21/04/2012 19:10 12,3 C 57 % 1006,7 hPa 0,0 mm 7,6 km/h (2 Bft) O-SO 247 2 min 0 W/m 4,0 C 12,3 C 15,1 km/h (3 Bft)
21/04/2012 19:20 11,8 C 57 % 1006,9 hPa 0,0 mm 13,7 km/h (3 Bft) O 270 2 min 0 W/m 3,6 C 11,8 C 33,5 km/h (5 Bft)
21/04/2012 19:30 11,6 C 60 % 1006,9 hPa 0,0 mm 8,3 km/h (2 Bft) O 270 2 min 0 W/m 4,1 C 11,6 C 19,1 km/h (3 Bft)
21/04/2012 19:40 11,1 C 64 % 1007,2 hPa 0,0 mm 6,5 km/h (2 Bft) O-SO 247 2 min 0 W/m 4,6 C 11,1 C 11,5 km/h (2 Bft)
21/04/2012 19:50 10,8 C 65 % 1007,2 hPa 0,0 mm 11,2 km/h (2 Bft) O-NO 292 2 min 0 W/m 4,5 C 10,8 C 18,0 km/h (3 Bft)
21/04/2012 20:00 10,5 C 66 % 1007,4 hPa 0,0 mm 6,5 km/h (2 Bft) SO 225 2 min 0 W/m 4,4 C 10,5 C 11,5 km/h (2 Bft)
21/04/2012 20:10 10,2 C 69 % 1007,8 hPa 0,0 mm 7,9 km/h (2 Bft) O-SO 247 2 min 0 W/m 4,8 C 10,2 C 13,0 km/h (3 Bft)
21/04/2012 20:20 10,1 C 70 % 1007,9 hPa 0,0 mm 8,3 km/h (2 Bft) S-SO 202 2 min 0 W/m 4,9 C 10,1 C 14,0 km/h (3 Bft)
21/04/2012 20:30 9,9 C 70 % 1008,2 hPa 0,0 mm 4,3 km/h (1 Bft) SO 225 2 min 0 W/m 4,7 C 9,9 C 7,6 km/h (2 Bft)
21/04/2012 20:40 9,6 C 71 % 1008,2 hPa 0,0 mm 6,1 km/h (2 Bft) S-SO 202 2 min 0 W/m 4,6 C 9,0 C 12,6 km/h (3 Bft)
21/04/2012 20:50 9,4 C 72 % 1008,5 hPa 0,0 mm 5,8 km/h (2 Bft) SO 225 0 min 0 W/m 4,6 C 8,8 C 5,8 km/h (2 Bft)
21/04/2012 21:00 9,4 C 73 % 1008,5 hPa 0,0 mm 10,8 km/h (2 Bft) SO 225 0 min 0 W/m 4,8 C 7,8 C 18,4 km/h (3 Bft)
21/04/2012 21:10 9,2 C 73 % 1008,8 hPa 0,0 mm 7,6 km/h (2 Bft) O-SO 247 0 min 0 W/m 4,6 C 8,2 C 7,6 km/h (2 Bft)
21/04/2012 21:20 8,9 C 74 % 1009,0 hPa 0,0 mm 10,4 km/h (2 Bft) O 270 0 min 0 W/m 4,5 C 7,2 C 16,9 km/h (3 Bft)
21/04/2012 21:30 8,6 C 75 % 1009,2 hPa 0,0 mm 6,1 km/h (2 Bft) S-SO 202 0 min 0 W/m 4,4 C 7,8 C 8,3 km/h (2 Bft)
21/04/2012 21:40 8,4 C 76 % 1009,5 hPa 0,0 mm 5,8 km/h (2 Bft) SO 225 0 min 0 W/m 4,4 C 7,7 C 10,8 km/h (2 Bft)
21/04/2012 21:50 8,2 C 77 % 1009,6 hPa 0,0 mm 7,9 km/h (2 Bft) SO 225 0 min 0 W/m 4,4 C 6,9 C 9,4 km/h (2 Bft)
21/04/2012 22:00 7,9 C 78 % 1009,8 hPa 0,0 mm 6,8 km/h (2 Bft) O-SO 247 0 min 0 W/m 4,3 C 6,8 C 15,5 km/h (3 Bft)
21/04/2012 22:10 7,7 C 80 % 1009,9 hPa 0,0 mm 6,1 km/h (2 Bft) O-SO 247 0 min 0 W/m 4,5 C 6,8 C 11,9 km/h (2 Bft)
21/04/2012 22:20 7,5 C 82 % 1010,1 hPa 0,0 mm 9,7 km/h (2 Bft) O-SO 247 0 min 0 W/m 4,6 C 5,7 C 17,3 km/h (3 Bft)
21/04/2012 22:30 7,4 C 82 % 1010,1 hPa 0,0 mm 7,6 km/h (2 Bft) SO 225 0 min 0 W/m 4,5 C 6,0 C 9,4 km/h (2 Bft)
21/04/2012 22:40 7,3 C 83 % 1010,2 hPa 0,0 mm 4,3 km/h (1 Bft) S-SO 202 0 min 0 W/m 4,6 C 7,3 C 8,3 km/h (2 Bft)
21/04/2012 22:50 7,1 C 83 % 1010,4 hPa 0,0 mm 5,4 km/h (2 Bft) SO 225 0 min 0 W/m 4,4 C 6,3 C 7,6 km/h (2 Bft)
21/04/2012 23:00 6,9 C 84 % 1010,4 hPa 0,0 mm 7,2 km/h (2 Bft) SO 225 0 min 0 W/m 4,4 C 5,6 C 13,3 km/h (3 Bft)
21/04/2012 23:10 6,8 C 85 % 1010,4 hPa 0,0 mm 5,8 km/h (2 Bft) SO 225 0 min 0 W/m 4,5 C 5,9 C 9,4 km/h (2 Bft)
21/04/2012 23:20 6,8 C 85 % 1010,5 hPa 0,0 mm 4,0 km/h (1 Bft) SO 225 0 min 0 W/m 4,5 C 6,8 C 6,5 km/h (2 Bft)
21/04/2012 23:30 6,6 C 86 % 1010,7 hPa 0,0 mm 6,5 km/h (2 Bft) O-SO 247 0 min 0 W/m 4,4 C 5,4 C 6,5 km/h (2 Bft)
21/04/2012 23:40 6,5 C 86 % 1010,7 hPa 0,0 mm 7,6 km/h (2 Bft) SO 225 0 min 0 W/m 4,3 C 5,0 C 12,6 km/h (3 Bft)
_ Min-Heure 23:40 18:00 12:00 - 13:40 - - - - 19:20 23:40 13:40
Minimum _ 6,5 C 54 % 1002,9 hPa - 1,8 km/h (1 Bft) - - - - 3,6 C 5,0 C 1,8 km/h (1 Bft)
_ Max-Heure 17:10 07:10 23:40 13:50 14:40 - - 20:40 23:40 14:30 17:10 19:20
Maximum _ 13,4 C 91 % 1010,7 hPa 1,3 mm 20,9 km/h
S-SO (4 Bft)
- - 2 min 0 W/m 9,4 C 13,4 C 33,5 km/h
O (5 Bft)
Moyenne _ 9,4 C 81 % 1004,9 hPa #2,1 mm 8,4 km/h (2 Bft) SO - #2:44 h 0 W/m 6,2 C 8,7 C 12,5 km/h (2 Bft)
Saint Bonnet de Bellac- Haute Vienne - France